Printer-friendly version

IAU Minor Planet Center

Minor Planet Center

MPEC 1994-D04: 1994 CK1

The following Minor Planet Electronic Circular may be linked-to from your own Web pages, but must not otherwise be redistributed electronically.


Read MPEC 1994-D03 Read MPEC 1994-D05


M.P.E.C. 1994-D04                                Issued 1994 Feb. 19, 23:13 UT

     The Minor Planet Electronic Circulars contain information on unusual
         minor planets and routine data on comets.  They are published
   on behalf of Commission 20 of the International Astronomical Union by the
          Minor Planet Center, Smithsonian Astrophysical Observatory,
                          Cambridge, MA 02138, U.S.A.

          MARSDEN@CFA or WILLIAMS@CFA (.HARVARD.EDU, .SPAN or .BITNET)

                                   1994 CK1

Additional observations:
     J94C01K  C1994 02 16.38012 10 05 15.81 +11 47 45.2          20.0 V      691
     J94C01K  C1994 02 16.38708 10 05 15.19 +11 47 47.7          20.3 V      691
     J94C01K  C1994 02 16.39431 10 05 14.54 +11 47 50.4          20.2 V      691
     J94C01K  C1994 02 19.30008 10 01 04.94 +12 06 46.2          20.2 V      691
     J94C01K  C1994 02 19.30844 10 01 04.26 +12 06 49.6          20.3 V      691
     J94C01K  C1994 02 19.31657 10 01 03.51 +12 06 53.0          20.3 V      691

Observer details:
691 Steward Observatory, Kitt Peak.  Observer R. Jedicke.
    0.9-m Spacewatch Telescope.

Orbital elements:
1994 CK1
Epoch 1994 Jan. 28.0 TT = JDT 2449380.5                 Marsden
M  89.37012              (2000.0)            P               Q
n   0.37710721     Peri.   27.63561     +0.99742350     +0.05968407
a   1.8974026      Node   328.86470     -0.07128971     +0.88658037
e   0.6204021      Incl.    4.41482     +0.00800892     +0.45870804
P   2.61           H    17.0          G   0.15
From 15 observations 1994 Feb. 10-19.

Ephemeris:
1994 CK1                 a,e,i = 1.90, 0.62, 4                   q = 0.7202
Date    TT    R. A. (2000) Decl.     Delta      r     Elong.  Phase     V
1994 02 17    10 04.37   +11 51.9    1.597    2.585   179.2     0.3    20.2
1994 02 22    09 57.29   +12 23.8    1.622    2.608   173.9     2.3    20.4
1994 02 27    09 50.53   +12 53.5    1.655    2.630   167.2     4.8    20.6
1994 03 04    09 44.24   +13 20.2    1.696    2.652   160.6     7.1    20.8
1994 03 09    09 38.56   +13 43.7    1.744    2.673   154.1     9.3    21.0
1994 03 14    09 33.57   +14 03.5    1.799    2.693   147.9    11.3    21.1
1994 03 19    09 29.33   +14 19.6    1.860    2.713   141.8    13.1    21.3

Brian G. Marsden                                              M.P.E.C. 1994-D04

Read MPEC 1994-D03 Read MPEC 1994-D05


Our Web policy. Index to the CBAT/MPC/ICQ pages.


Valid HTML 4.01!